Wind_Speed
28 27 26 26 26 27 28 28 28 29 29 29 29 29 27 26 25 25 25 25 26 27 28 29 29 29 29 29 29 30 31 32 32 33 34 34 34 35 35 35 35 36 36 36 36 37 37 37 38 38 38 38 38 38 39 39 39 39 38 39 39 40 40 41 39 35 35 37 38 37 38 39 38 39 39 37 37 36 34 34 36 36 35 35 36
29 28 27 27 27 28 28 28 29 29 29 29 29 28 27 26 26 26 26 27 27 29 29 30 30 30 30 30 31 32 33 33 34 34 35 35 35 36 36 36 36 36 37 36 37 37 37 37 38 38 39 39 40 40 40 41 42 41 41 41 41 42 42 42 42 39 35 36 38 38 38 39 39 39 39 39 39 37 34 34 36 37 37 35 36
29 28 28 29 28 28 28 28 28 28 28 28 27 27 26 26 27 27 28 28 29 30 30 30 31 31 31 32 33 34 34 34 35 36 36 36 36 37 37 37 37 37 37 37 37 37 37 38 38 38 39 40 41 42 42 43 43 43 43 43 43 43 43 42 43 42 38 36 38 39 39 40 39 38 38 39 40 38 35 34 35 36 36 36 36
30 29 29 29 29 29 28 28 27 27 27 26 26 26 27 27 28 28 29 29 30 30 31 31 32 32 33 34 35 36 36 36 36 37 37 37 37 37 37 37 37 37 37 38 38 38 39 39 40 40 41 41 42 43 44 44 45 45 44 44 44 43 43 44 43 43 41 38 38 39 40 40 39 38 38 39 41 39 36 34 34 35 36 36 36
30 30 30 30 29 28 28 27 27 27 27 26 26 27 28 28 29 29 30 30 30 31 31 32 33 34 34 36 37 38 39 38 38 38 38 38 37 37 37 37 37 37 37 38 39 39 40 41 41 42 43 43 44 44 45 46 46 46 45 45 45 44 44 44 44 45 44 42 40 40 41 41 40 39 39 40 41 40 38 36 35 35 36 36 35
29 31 30 29 28 28 28 28 28 27 27 27 28 29 29 29 30 30 31 31 31 31 32 34 35 35 36 37 39 40 41 40 39 39 38 38 38 38 38 38 38 38 38 39 40 41 42 43 43 44 44 45 45 46 46 47 47 47 47 47 47 46 46 46 46 47 46 45 43 42 42 42 41 40 41 41 42 41 39 37 36 35 36 36 34
29 31 30 27 26 26 26 25 25 25 26 26 27 28 29 30 30 30 31 31 31 32 34 35 36 36 38 39 41 42 43 42 40 40 39 39 38 38 38 39 39 40 41 41 42 43 43 45 45 46 46 46 46 47 47 47 48 48 49 49 48 48 48 48 48 48 48 47 46 45 44 43 42 42 41 42 43 42 40 38 36 36 37 36 34
25 25 25 24 24 24 24 24 24 24 24 25 25 27 28 29 30 31 31 32 32 33 35 36 36 38 39 41 43 44 44 42 41 40 40 39 39 39 40 40 41 42 43 43 44 44 44 45 45 46 46 46 46 47 47 47 47 48 49 49 49 49 49 49 49 49 49 48 47 46 46 45 44 43 42 42 44 42 40 40 38 37 38 36 34
27 25 24 23 23 24 23 24 24 25 25 25 25 26 27 29 30 31 32 32 33 34 36 37 38 40 41 43 44 45 44 42 41 41 40 41 41 41 42 42 42 43 43 44 44 45 45 45 45 46 46 47 47 48 48 48 48 48 49 49 50 50 50 50 49 49 49 49 48 48 47 46 45 45 43 43 44 42 40 40 38 38 39 36 34
29 26 25 24 23 23 23 24 24 25 25 26 26 27 28 29 30 31 32 33 34 36 37 39 40 41 43 45 45 45 42 41 41 41 42 42 42 43 43 43 43 43 44 44 45 45 46 46 46 47 47 48 48 49 49 49 50 50 51 51 51 51 51 51 51 51 50 50 49 48 48 47 46 46 45 45 45 44 42 40 38 38 39 37 35
26 25 24 24 23 24 24 24 25 25 25 26 27 28 29 30 31 32 33 34 36 37 39 40 42 43 44 46 45 43 41 41 42 42 42 43 43 43 43 43 43 44 44 45 45 46 46 47 47 48 48 49 50 50 51 51 51 52 52 53 53 52 52 52 53 52 52 51 50 49 48 47 46 47 47 46 46 46 43 41 40 39 38 37 36
24 24 24 25 25 25 26 26 26 26 26 27 28 29 29 30 31 33 34 36 37 39 40 42 43 44 45 45 42 41 41 42 42 43 43 43 43 43 43 43 44 44 44 45 45 46 46 47 47 48 49 50 51 52 52 53 53 54 54 55 55 54 54 54 54 54 53 53 52 51 49 47 46 47 47 46 46 46 44 42 41 41 40 38 37
22 23 25 27 27 27 27 28 28 28 27 28 28 29 30 31 32 34 35 37 38 39 41 42 44 44 43 42 40 41 41 42 42 42 42 42 42 42 43 43 44 44 44 45 45 46 47 47 48 49 50 51 52 52 54 54 55 56 56 56 56 56 55 55 55 54 54 54 53 53 51 49 47 46 47 46 46 46 45 42 42 42 40 39 38
23 25 27 27 28 28 29 29 29 29 28 28 28 29 30 31 33 34 35 37 37 39 41 42 43 42 40 40 40 41 41 41 41 41 41 41 42 42 42 43 43 43 44 45 45 46 47 48 49 49 50 50 51 52 53 54 55 56 56 57 57 57 57 56 56 56 55 54 54 53 53 51 49 47 47 46 46 46 45 43 42 43 41 39 38
25 26 27 27 28 29 29 29 28 27 27 28 29 30 31 32 33 34 35 36 37 38 40 40 39 38 38 39 40 40 40 40 40 40 40 40 41 41 41 42 42 43 44 44 45 46 47 48 48 49 49 50 51 51 52 53 53 54 55 55 56 57 58 58 57 57 56 55 54 53 53 52 50 48 47 46 46 45 44 43 42 43 42 39 37
25 26 27 27 27 28 28 27 27 27 28 30 31 32 32 33 34 34 34 36 37 38 38 37 36 37 38 39 39 39 38 38 38 39 39 39 40 40 41 41 42 42 43 43 44 45 45 46 47 48 49 50 51 51 52 52 52 53 53 53 54 55 55 56 57 57 56 55 54 52 52 51 50 49 47 46 45 44 44 43 42 43 43 40 37
25 26 26 26 27 27 28 28 29 30 31 32 33 33 33 33 34 35 35 36 36 35 34 34 35 36 37 37 37 37 37 37 37 38 38 38 39 39 40 40 41 41 42 42 43 43 44 44 45 46 48 49 50 50 51 51 51 51 50 50 50 50 51 53 54 55 54 54 53 52 51 50 49 48 47 45 44 43 43 42 41 42 43 40 37
27 27 27 27 27 27 28 30 32 34 35 35 34 33 33 34 35 35 34 33 32 31 32 33 34 35 35 35 35 35 36 36 37 37 37 37 38 38 39 39 40 40 41 41 42 42 43 44 44 46 47 48 48 48 49 49 48 47 45 43 42 42 42 44 46 49 50 51 51 50 49 48 47 47 45 44 43 42 41 41 40 41 42 40 37
28 28 28 28 27 27 29 31 32 33 34 34 34 34 35 35 33 31 29 28 29 30 31 32 33 33 34 34 34 34 35 35 36 36 36 36 37 37 38 38 39 39 40 41 41 42 42 43 43 44 45 46 46 47 46 45 43 40 37 34 31 30 29 31 34 38 42 44 45 46 46 45 45 44 43 42 41 40 40 39 38 39 40 39 36
26 27 27 26 26 27 27 28 28 29 31 32 33 33 33 30 27 26 26 27 28 29 30 31 31 32 32 32 33 33 34 34 34 34 35 35 36 36 36 37 37 38 38 39 39 40 41 41 42 42 43 43 44 44 42 39 35 31 28 25 23 23 24 25 27 28 29 31 32 36 40 42 42 41 41 40 39 38 38 37 37 37 38 37 35
25 25 24 24 24 24 24 25 27 29 30 30 29 27 25 23 23 24 25 26 27 28 29 29 30 30 30 31 32 32 33 33 33 33 34 34 35 35 36 36 36 37 37 38 38 39 39 40 41 41 42 42 42 40 38 33 28 24 23 21 20 19 20 21 21 21 22 23 24 26 30 34 37 39 38 38 37 36 36 36 35 36 37 35 33
22 21 21 22 21 21 21 23 25 25 24 23 22 21 21 21 22 23 24 26 27 27 28 28 28 29 29 30 31 31 31 31 32 32 33 34 34 34 35 35 35 35 35 36 36 36 37 37 38 39 40 40 40 39 35 29 24 21 22 22 20 18 18 18 19 20 21 21 23 23 22 24 29 33 35 35 35 35 34 34 34 34 35 34 32
19 18 18 18 18 18 19 20 20 19 19 19 20 20 20 21 22 23 24 25 26 26 27 27 27 28 29 30 30 30 30 31 31 32 32 33 33 33 33 33 34 34 33 33 33 33 33 34 35 36 36 36 37 37 35 29 23 21 22 22 20 18 18 18 18 19 19 19 20 21 21 20 23 26 29 30 31 32 32 32 32 32 33 33 30
17 17 16 16 16 16 16 17 18 19 19 20 20 20 20 21 22 23 24 25 25 25 25 26 26 28 28 29 29 29 29 30 31 31 31 32 32 32 32 32 32 31 31 31 30 30 31 31 32 32 33 33 35 35 34 30 25 22 22 22 21 20 20 19 18 18 18 17 17 17 19 20 21 22 23 26 28 28 29 29 29 29 31 31 30
16 16 15 14 14 15 16 17 18 19 19 19 19 20 20 21 22 23 24 24 25 24 24 25 26 27 27 27 27 28 29 30 30 30 30 30 30 30 30 30 30 30 29 29 29 29 29 29 29 29 30 31 33 34 34 32 27 23 21 22 22 21 20 20 19 17 16 16 15 15 15 17 18 18 19 21 24 25 26 27 27 27 28 29 29
16 15 15 14 15 16 17 18 18 18 18 18 18 19 20 20 22 23 23 24 23 23 24 25 26 26 26 26 27 28 28 29 29 29 29 29 29 29 29 29 28 28 28 28 27 27 27 26 26 27 28 29 30 32 33 33 30 26 22 21 21 20 19 18 18 17 15 15 14 13 13 15 16 16 17 18 21 22 23 23 24 24 26 27 28
16 16 15 15 16 17 17 17 17 17 17 18 18 19 20 21 22 23 23 23 23 23 24 24 25 25 25 26 27 28 28 28 28 28 27 27 27 27 27 27 27 27 27 27 26 26 25 25 24 25 26 27 29 30 31 31 31 28 24 21 19 18 18 17 17 17 16 14 13 11 9 11 12 13 14 15 17 19 20 20 21 22 23 24 25
16 16 16 16 16 16 16 16 17 17 17 18 18 19 20 21 22 22 22 22 22 23 23 23 24 24 25 26 27 27 27 27 27 27 26 26 26 26 26 26 26 27 26 26 25 25 24 24 24 25 26 26 27 28 28 28 29 29 28 25 21 18 17 16 16 16 15 14 13 11 9 9 10 10 10 11 13 15 17 18 19 20 20 21 22
16 16 16 16 16 16 16 17 17 17 18 18 18 20 21 22 22 22 22 22 22 22 23 23 23 24 25 26 27 27 27 26 26 25 25 25 25 25 25 25 25 26 26 25 25 24 24 24 24 25 25 25 26 26 26 27 27 27 28 28 26 23 20 17 16 16 15 14 13 12 12 12 11 10 10 9 10 12 14 15 16 17 18 18 19
16 15 15 15 16 16 17 17 17 18 18 18 19 20 21 21 21 21 21 21 22 22 22 23 24 25 26 26 26 26 25 25 24 23 23 23 24 24 24 24 25 25 25 25 24 23 23 23 24 24 25 25 25 25 25 25 26 26 26 26 26 26 24 21 18 16 15 14 13 12 12 12 12 11 10 10 10 10 11 12 13 14 15 16 16
16 16 16 16 16 17 17 18 18 18 18 19 20 21 21 21 21 21 21 21 21 22 22 23 24 24 25 25 25 25 24 23 22 22 22 22 23 23 23 24 24 25 24 23 23 22 22 22 23 24 24 24 24 24 24 24 24 24 24 24 24 24 24 23 22 21 18 16 14 12 11 11 10 10 10 10 11 11 11 11 12 12 13 14 14
16 17 17 17 17 18 18 18 18 19 19 20 21 21 22 22 21 21 21 22 22 22 22 23 24 24 24 24 24 23 22 21 21 21 21 21 22 22 23 23 24 24 23 22 21 21 21 21 22 23 23 23 23 23 23 23 22 22 22 23 22 22 22 22 22 22 22 20 18 16 13 11 10 9 9 9 9 10 10 11 11 11 12 12 13
17 17 17 18 19 19 19 19 19 20 21 21 22 22 22 22 22 22 22 22 22 22 22 23 23 23 23 23 23 22 21 20 20 20 20 21 22 22 22 23 23 23 22 21 20 19 19 20 21 22 22 23 23 23 22 22 22 22 21 21 21 21 21 21 21 21 21 21 21 20 19 17 15 13 10 8 8 8 8 9 9 10 10 10 11
18 18 19 19 20 20 20 20 20 21 22 22 23 22 22 22 22 22 22 22 22 22 22 22 23 23 23 22 21 21 20 20 19 19 20 21 21 22 22 23 23 22 21 20 19 18 18 19 20 21 22 22 22 22 22 22 22 22 21 21 21 21 21 21 21 20 20 20 20 20 20 20 19 18 16 13 11 9 7 6 7 7 8 8 9
18 19 20 20 21 20 21 21 21 22 23 23 23 22 22 22 22 22 22 22 22 22 22 22 22 22 22 21 20 20 19 19 18 18 19 20 21 21 22 22 22 21 20 19 18 17 17 18 20 20 21 21 22 22 22 22 22 22 22 21 21 21 20 20 20 19 19 19 19 19 19 19 19 19 18 17 17 15 13 11 9 7 6 6 6
19 20 21 21 21 21 21 21 22 23 23 23 23 22 22 22 22 22 22 22 22 22 22 22 22 21 21 20 19 19 18 17 17 18 18 19 20 20 21 21 21 20 19 18 17 17 16 17 18 19 20 21 21 22 22 22 22 22 22 22 21 21 20 20 19 19 19 18 18 18 18 18 18 18 18 18 17 17 16 15 14 13 11 9 8
20 21 21 21 21 21 21 22 22 23 23 22 22 22 22 22 22 22 21 21 21 21 21 21 21 20 19 19 18 18 17 16 16 17 18 19 19 20 20 20 20 19 18 17 17 16 16 16 17 18 19 20 21 21 22 22 22 22 22 22 22 21 21 20 19 19 19 18 18 18 18 17 17 17 17 17 16 16 16 16 15 15 14 13 12
20 20 20 21 21 21 22 22 22 22 22 22 22 22 22 22 22 21 21 21 21 21 21 20 19 19 18 17 17 16 16 15 15 16 17 18 18 19 19 19 18 18 17 17 16 16 16 16 17 18 18 19 20 21 21 21 22 22 22 22 22 22 21 21 20 20 19 19 18 18 18 17 17 17 16 16 16 16 16 15 15 15 15 14 14
19 20 20 21 21 21 22 22 22 22 22 22 22 22 21 21 21 20 20 20 20 20 20 19 18 17 17 16 15 15 14 14 15 15 16 16 17 17 17 17 17 17 17 16 16 16 16 16 17 18 18 19 19 20 20 21 21 22 22 22 22 22 22 22 21 21 20 20 19 19 18 18 17 17 16 16 16 15 15 15 15 15 15 14 14
19 19 20 20 21 21 21 22 22 22 21 21 21 21 21 20 20 20 20 20 20 20 19 19 17 16 15 14 14 13 13 13 14 14 15 15 15 15 15 15 16 16 16 16 16 16 16 16 17 18 18 19 19 19 20 20 20 21 21 22 22 22 22 22 22 21 21 21 20 20 19 18 18 17 17 16 16 16 15 15 15 15 14 14 14
18 19 19 19 20 20 21 21 21 21 20 20 20 20 20 20 20 20 20 20 20 20 19 18 17 15 14 13 13 12 12 12 13 13 13 14 14 14 14 14 15 15 15 16 16 16 16 17 17 18 18 19 19 20 20 20 20 21 21 21 22 22 22 22 21 21 21 21 21 21 20 19 19 18 18 17 17 17 16 16 16 15 15 15 15
18 18 19 19 19 20 20 20 20 20 20 20 19 19 19 19 19 20 20 20 20 19 18 17 15 14 13 12 11 11 11 12 12 12 12 12 13 13 13 13 14 14 15 16 16 17 17 17 18 18 19 19 20 20 20 21 21 21 21 21 21 22 22 22 22 21 21 21 21 21 21 21 20 20 19 18 18 17 17 17 17 16 16 16 16
18 18 19 19 20 20 20 20 20 19 19 19 19 18 18 19 19 20 20 19 18 18 17 15 13 12 12 11 11 11 11 11 11 11 11 11 12 12 12 13 13 14 15 16 17 18 18 19 19 20 20 20 21 21 21 22 22 22 22 22 22 22 22 22 22 22 22 21 21 21 21 21 21 20 20 20 19 19 18 18 18 18 17 17 17
19 19 19 20 20 20 20 19 19 18 18 18 18 17 18 18 19 19 19 18 16 15 15 13 12 11 11 10 10 10 10 10 10 11 11 11 12 12 13 13 14 15 15 16 17 18 19 20 20 21 21 22 22 23 23 23 23 23 23 23 23 23 23 23 23 23 22 22 22 22 22 21 21 21 21 21 20 20 20 19 19 19 19 18 18
19 19 19 20 20 19 19 19 18 17 17 17 17 17 17 18 18 18 17 15 14 13 12 11 10 10 10 10 10 10 10 10 10 11 12 12 13 13 14 14 15 16 16 17 18 19 20 20 21 22 22 23 23 24 24 25 25 24 24 24 24 24 24 24 24 24 23 23 23 23 23 23 22 22 22 22 21 21 21 21 21 20 20 20 20
19 19 19 19 19 19 18 18 17 16 16 16 16 17 17 17 17 16 14 13 11 11 10 10 10 10 10 10 10 10 10 11 11 12 12 13 14 14 15 15 16 17 18 19 20 20 21 22 22 23 23 24 24 24 25 25 26 26 26 26 26 26 25 25 25 25 25 24 24 24 24 24 24 23 23 23 23 22 22 22 22 22 22 22 22
19 19 19 19 19 18 17 16 16 16 16 16 17 17 16 15 14 13 12 10 9 9 9 9 10 10 10 10 10 10 11 11 12 13 13 14 15 15 16 17 18 19 20 21 22 23 23 24 24 25 25 25 25 26 26 26 26 26 27 27 27 27 27 27 27 26 26 26 25 25 25 25 25 25 25 24 24 24 24 23 23 23 23 23 23
19 19 19 19 18 17 16 16 15 15 16 16 16 15 14 13 12 11 10 9 9 9 9 10 10 10 10 11 11 12 12 13 13 14 15 15 15 16 17 18 19 20 21 22 23 24 25 26 27 27 27 27 27 27 27 27 27 27 27 27 28 28 29 28 28 28 28 28 27 27 27 26 26 26 26 26 26 26 26 25 25 25 24 24 24
19 19 19 18 17 16 16 15 15 15 15 15 15 13 12 11 10 9 9 9 10 10 10 10 11 11 11 12 12 13 14 14 15 16 17 17 18 18 19 20 21 22 23 24 24 25 26 27 28 28 29 29 29 30 29 29 29 28 28 28 28 28 29 29 30 30 30 30 30 29 29 29 28 28 28 28 28 28 27 27 27 27 27 26 26
19 19 18 18 17 16 15 15 15 15 15 14 13 12 11 11 10 10 10 10 11 11 11 12 12 13 13 14 15 15 16 17 18 18 19 20 21 21 22 22 23 24 25 26 27 27 28 28 29 29 30 30 31 31 31 31 31 31 31 30 29 29 29 30 30 31 31 31 31 31 31 31 31 31 31 30 30 30 30 30 30 29 29 29 29
19 19 18 17 17 16 15 15 15 15 14 13 13 12 12 11 11 11 11 11 12 12 13 13 14 15 15 16 17 18 19 20 20 21 22 23 24 24 25 25 26 26 27 28 29 29 30 31 31 31 32 32 32 33 33 33 33 33 33 33 33 32 32 31 32 32 32 33 33 33 33 33 33 33 33 33 33 33 33 33 33 33 32 32 32
Wind_Direction
246 247 248 249 248 249 251 252 254 256 258 260 262 264 266 268 271 274 278 281 285 288 290 293 296 300 301 301 302 302 302 301 299 298 298 297 297 297 297 296 296 295 294 294 293 293 292 291 291 290 290 290 290 290 290 290 289 289 288 288 287 287 287 287 287 287 286 287 288 287 286 287 289 290 291 293 294 294 294 293 294 296 291 276 265
244 246 247 248 248 249 250 251 252 253 255 257 259 262 265 267 271 275 279 283 286 288 291 294 298 301 301 302 304 304 303 302 301 300 300 300 299 298 298 297 297 295 294 293 293 292 291 290 290 289 289 288 288 288 287 287 287 287 287 286 286 286 286 287 287 286 284 284 286 286 286 286 287 288 289 290 291 292 292 291 292 294 292 280 266
247 247 247 247 247 248 248 248 250 252 254 256 259 262 265 268 272 276 279 282 284 287 290 295 299 300 300 302 305 306 305 304 303 302 301 300 299 299 298 297 297 295 294 293 293 292 292 291 290 289 288 288 287 287 286 285 285 285 285 285 285 285 285 285 286 286 285 283 283 284 284 284 284 285 286 287 288 290 291 291 290 292 293 284 269
249 249 247 246 247 247 248 248 250 252 255 257 260 263 266 269 272 275 278 280 283 286 291 295 297 298 299 302 304 306 307 306 304 303 301 300 299 298 297 296 295 294 293 293 293 293 292 292 291 290 289 288 287 286 285 284 284 283 283 283 282 282 283 282 283 283 283 282 281 281 282 282 283 284 285 285 286 288 290 291 290 291 294 287 272
245 244 244 245 248 249 249 250 251 254 256 259 263 265 268 270 272 274 276 279 282 286 290 293 295 296 298 301 303 305 307 307 305 303 301 300 299 298 297 295 295 294 293 294 293 293 293 292 291 290 289 288 287 285 284 284 283 282 282 281 280 280 280 280 280 280 281 281 280 280 281 281 283 283 283 283 283 284 286 288 288 289 292 289 275
245 243 243 246 247 248 251 253 255 258 260 262 264 266 268 270 271 273 275 278 282 285 289 291 293 295 298 300 302 304 306 306 304 302 301 300 299 298 297 296 296 296 296 295 295 295 294 293 291 290 289 287 286 285 284 283 282 281 280 279 279 279 278 278 278 278 278 279 279 279 279 279 280 280 280 280 280 282 285 286 285 286 288 288 278
251 245 242 243 244 247 251 254 257 261 262 264 265 266 268 269 271 273 275 277 280 284 287 290 292 295 297 299 302 304 305 304 302 301 301 300 300 299 298 298 298 298 298 297 297 296 294 293 292 291 289 287 285 284 283 282 281 280 280 279 278 278 277 277 277 277 277 277 276 276 276 276 276 276 277 278 278 280 282 284 284 283 284 287 281
250 245 242 242 246 250 254 257 260 262 263 265 266 267 268 270 271 272 274 276 279 282 285 288 291 294 296 299 301 303 304 303 301 301 301 301 300 300 299 299 299 299 299 298 298 296 295 293 292 291 290 288 287 285 283 282 281 280 279 279 278 277 277 276 276 276 276 275 274 274 273 273 274 274 274 274 276 278 279 279 280 281 281 285 283
246 247 248 250 253 255 257 259 261 262 263 265 266 268 270 270 271 271 273 276 278 281 284 287 290 293 295 298 300 302 302 301 301 302 302 302 301 301 301 301 301 300 300 299 298 297 296 294 293 292 290 289 288 287 285 284 282 280 279 278 277 277 276 276 275 274 274 273 273 272 272 271 271 272 271 271 273 276 278 278 279 279 279 281 282
245 248 250 252 253 254 255 258 260 262 264 265 267 268 269 269 270 271 273 275 277 280 283 286 290 292 295 298 300 301 301 301 301 302 302 302 301 301 301 301 301 301 300 299 298 297 297 296 295 294 293 291 290 288 287 286 284 282 280 278 277 276 275 274 273 272 272 271 271 270 270 270 270 270 270 270 270 272 274 277 278 279 279 279 279
246 249 248 248 249 251 253 256 260 263 266 267 268 268 268 269 270 271 273 275 277 280 283 287 290 292 295 298 300 300 300 301 302 302 302 302 301 301 302 301 301 301 300 300 299 299 298 298 297 296 295 294 293 291 290 288 286 284 282 280 278 276 274 272 270 270 269 269 269 269 268 268 268 269 269 269 269 270 270 272 274 276 278 278 279
246 246 245 246 249 253 257 260 263 266 268 268 268 268 269 269 270 271 273 275 277 280 284 287 290 292 295 297 298 299 300 301 302 302 301 301 302 302 302 302 302 302 302 302 302 301 301 301 300 299 298 297 295 294 292 290 288 286 283 281 279 277 275 272 270 268 267 266 266 266 266 266 266 266 267 267 267 269 269 269 270 272 274 276 277
244 244 246 249 253 258 262 266 268 268 268 268 268 269 269 269 270 271 273 275 278 282 284 287 290 293 295 296 297 299 301 301 301 301 301 301 302 303 303 304 304 304 304 304 304 304 303 303 302 301 299 298 296 294 293 290 288 286 284 282 280 278 275 273 271 269 266 264 263 263 263 263 263 263 265 266 266 266 267 268 268 270 272 274 275
245 247 250 254 259 263 265 267 268 268 267 267 267 268 269 269 270 271 273 276 279 282 284 288 291 293 294 296 298 299 300 299 299 300 301 303 304 304 305 305 306 306 306 306 306 306 305 305 304 303 301 300 298 296 294 292 289 287 284 282 279 277 275 272 270 268 267 265 263 262 261 261 261 261 262 263 264 264 265 265 266 267 269 271 273
252 255 259 262 264 265 265 266 267 267 267 268 267 267 268 269 270 271 273 276 279 282 286 290 291 292 295 297 298 298 298 298 299 301 303 304 305 306 307 308 308 308 308 308 308 307 307 307 306 305 304 303 301 300 297 295 293 289 286 283 279 276 273 271 269 267 266 265 263 262 261 260 259 259 260 262 262 263 264 264 264 265 267 269 271
260 262 264 265 265 265 265 266 268 271 272 271 268 266 266 267 269 271 273 276 280 285 288 290 291 294 296 297 297 297 298 299 301 304 305 306 307 308 309 309 309 309 309 309 309 309 309 309 309 308 308 307 306 304 302 300 297 293 289 285 280 276 273 270 268 266 264 264 263 262 261 260 258 257 258 259 261 261 262 263 263 264 266 268 269
264 264 265 266 266 266 267 269 272 274 274 271 267 265 266 267 268 271 274 279 283 286 288 290 293 295 295 295 295 297 299 302 304 306 307 308 309 309 309 309 309 309 309 310 311 311 311 311 311 311 311 311 310 309 307 304 301 296 292 287 283 278 274 271 268 266 264 262 261 261 260 260 259 258 257 257 258 260 260 261 262 263 265 267 268
264 265 266 267 268 269 271 273 274 273 270 268 266 264 265 266 269 272 277 280 283 286 289 292 293 293 293 294 297 299 302 304 305 306 307 308 309 309 309 309 310 311 312 313 314 314 314 315 315 315 315 315 315 314 312 309 305 301 297 293 288 283 278 274 270 266 263 261 260 259 259 259 259 259 258 257 258 258 259 260 260 261 265 267 267
265 266 267 268 270 272 274 275 275 273 269 267 265 263 264 266 270 274 278 281 285 288 290 290 291 292 294 296 299 302 304 305 305 307 308 309 310 310 311 312 313 314 315 316 316 317 317 318 318 319 320 321 321 321 318 315 311 308 305 301 297 292 286 280 275 270 266 263 261 259 257 257 258 259 259 259 259 259 259 260 259 260 264 266 266
268 268 269 270 271 272 274 276 277 274 269 266 265 264 265 269 273 277 280 284 286 288 288 289 291 293 296 298 301 302 304 305 306 308 309 310 311 312 313 314 315 316 316 317 317 318 319 320 321 324 326 328 328 327 323 319 316 315 314 310 303 296 292 289 287 281 274 268 265 261 257 255 255 257 258 259 260 260 261 261 260 260 263 266 266
270 271 271 269 267 268 272 276 275 271 267 265 265 267 269 273 278 281 283 285 285 286 288 290 293 295 297 299 301 302 304 305 307 309 310 312 313 314 315 316 316 317 317 319 320 321 323 325 327 330 332 333 335 334 330 324 319 319 321 319 311 303 300 299 297 290 279 268 264 263 261 257 255 255 256 258 259 260 261 262 261 261 263 266 266
274 275 273 269 263 261 263 267 267 266 266 267 270 273 277 280 282 283 283 284 285 288 290 292 294 296 298 300 301 303 305 308 310 311 313 315 316 317 317 317 318 319 320 322 324 325 328 330 332 334 336 338 341 342 337 330 320 316 321 324 321 315 311 307 303 299 290 274 263 261 263 261 257 255 256 257 258 259 260 261 261 261 262 265 266
277 277 274 270 265 260 260 264 267 270 273 276 280 282 283 283 283 282 283 285 287 289 290 292 294 297 299 301 303 306 308 311 313 315 316 317 318 318 318 319 320 322 324 325 327 329 331 333 335 337 339 343 347 349 345 337 324 314 315 321 325 324 320 313 305 302 299 286 270 264 263 263 260 258 257 258 258 259 260 261 262 261 262 264 266
278 277 274 272 270 268 269 272 274 277 279 281 283 283 281 281 282 283 285 287 288 289 291 293 295 298 300 303 306 309 312 314 315 317 318 318 318 318 320 322 324 325 326 328 330 332 334 335 336 339 342 347 352 354 353 347 335 320 314 315 318 321 323 321 314 305 300 293 281 269 264 262 260 260 259 258 258 259 261 262 262 262 263 265 267
276 275 273 272 272 272 274 275 276 278 279 278 278 278 279 281 283 285 287 287 288 289 291 294 297 300 303 306 309 312 314 315 316 317 318 318 319 320 323 325 326 327 329 332 334 335 335 336 338 342 346 351 355 358 359 357 349 335 323 317 315 314 316 319 317 310 302 296 286 273 264 260 258 260 260 257 257 259 261 262 263 263 263 265 266
270 269 269 271 273 275 276 277 277 276 276 276 277 278 280 283 284 286 286 286 287 289 292 295 299 302 306 309 311 312 314 315 316 317 318 318 320 323 325 327 328 331 333 335 336 336 337 338 340 345 351 355 358 0 2 3 0 353 340 327 320 316 313 312 312 309 303 299 294 282 270 264 261 260 259 257 257 259 261 263 264 264 263 264 265
263 264 266 271 274 276 276 275 274 274 274 275 277 279 281 283 284 285 285 286 287 289 293 298 302 305 308 310 311 312 313 314 316 317 318 320 323 326 327 329 331 334 336 337 337 337 338 339 343 350 355 358 0 2 3 4 5 4 358 346 332 322 314 309 306 301 295 293 294 292 284 274 270 267 264 261 260 261 262 263 263 264 264 263 264
258 261 267 271 274 274 273 272 272 274 275 276 278 280 282 283 283 283 284 284 287 291 297 301 305 307 308 309 310 312 313 314 316 318 320 323 326 328 330 332 335 337 338 338 338 338 339 342 348 355 358 0 1 3 3 4 6 8 9 7 359 345 330 318 310 305 297 289 285 283 281 276 274 274 272 270 269 266 265 266 266 267 267 265 264
257 262 267 271 272 271 270 271 273 275 275 276 278 280 281 281 281 281 282 285 290 295 300 303 305 306 307 309 310 312 313 315 318 320 323 326 329 331 333 335 337 339 339 339 339 340 342 347 353 357 360 1 2 3 3 4 5 8 11 14 14 10 1 346 332 321 313 304 293 283 276 273 273 275 275 274 275 274 272 272 273 273 273 272 271
258 263 267 269 269 269 270 273 274 275 275 277 279 280 280 280 281 282 284 288 293 298 301 303 304 305 307 309 310 311 313 316 319 321 324 327 330 331 333 336 338 339 339 340 340 342 346 351 355 358 359 1 2 3 3 4 5 7 10 12 15 18 17 13 4 352 339 327 315 301 289 282 278 276 275 272 271 272 273 275 277 278 278 279 280
260 264 268 269 269 270 273 275 276 276 277 278 279 280 280 281 282 285 288 291 295 298 300 302 303 305 307 308 309 311 313 315 317 319 323 327 329 331 333 337 339 339 339 339 340 343 348 352 355 357 359 -0 1 2 3 4 4 6 8 10 12 15 19 21 21 20 14 4 351 335 320 307 296 287 282 278 274 271 271 271 273 275 275 276 278
262 266 270 271 272 274 276 277 277 277 278 279 279 280 281 283 285 287 290 292 295 297 298 300 303 305 306 307 308 309 311 312 314 317 321 326 329 331 335 337 337 337 337 338 340 343 349 353 355 357 358 359 0 2 4 5 5 5 6 8 10 12 15 18 22 24 25 24 21 16 6 353 339 323 307 296 288 281 276 273 271 270 270 270 270
264 268 272 274 276 277 278 278 277 277 278 279 280 281 282 284 286 288 289 291 293 295 298 300 302 304 305 306 306 306 306 308 311 315 320 325 329 332 334 335 335 336 337 338 340 344 349 353 356 358 359 360 1 3 4 5 6 7 7 7 8 10 12 15 18 20 22 24 27 28 28 26 21 13 0 345 327 308 295 287 281 277 274 272 271
264 269 273 276 277 278 278 277 277 277 278 279 280 281 282 284 286 287 288 290 292 295 297 300 302 303 304 303 302 302 303 306 310 315 320 325 329 332 333 334 335 336 337 338 341 346 350 354 357 359 0 2 3 4 5 6 7 8 8 8 8 8 10 13 14 16 18 20 23 25 28 30 32 31 29 27 22 11 355 333 312 298 290 284 279
264 270 275 277 278 277 277 276 275 276 277 278 279 281 283 284 285 286 288 290 293 295 297 300 301 301 301 300 298 298 300 304 309 315 320 326 329 331 331 333 334 335 337 340 344 347 350 354 357 359 1 4 5 6 7 8 9 10 10 10 10 9 9 10 11 11 13 16 19 21 23 25 28 29 31 33 35 34 31 27 20 6 347 327 309
267 272 274 275 276 275 274 274 274 275 276 278 280 281 282 283 284 286 288 290 293 295 297 299 300 300 298 297 295 295 298 303 309 315 320 325 328 329 330 332 335 337 340 342 345 347 349 352 355 357 0 3 4 6 8 9 10 11 11 12 12 12 11 10 9 9 10 12 14 16 18 20 22 23 25 27 30 31 32 33 33 32 30 26 19
268 271 273 273 273 272 272 272 273 275 276 278 279 280 281 283 284 286 288 291 293 295 297 297 298 297 295 293 292 293 297 302 308 314 320 324 326 327 330 334 337 340 342 343 344 346 347 348 350 353 356 358 0 3 4 7 8 10 11 12 12 13 13 13 11 10 10 10 10 10 11 12 14 16 17 19 21 22 24 25 27 28 28 28 28
268 270 271 271 270 270 270 272 273 275 276 277 278 279 281 283 285 287 289 291 293 295 296 296 295 293 291 290 290 292 296 302 308 314 320 323 325 328 331 336 340 342 343 344 345 345 345 345 346 348 350 352 354 357 358 0 3 5 7 9 10 10 11 12 12 12 12 11 10 9 8 8 8 8 9 10 11 12 14 15 16 18 18 19 20
268 268 268 268 267 268 269 270 272 273 275 276 278 280 282 284 286 288 290 292 293 294 294 293 292 290 288 288 289 292 296 303 309 314 318 321 324 329 334 339 343 345 346 347 347 346 345 345 345 345 347 348 349 351 352 354 356 358 360 2 4 6 7 8 9 10 10 10 10 9 8 7 7 6 5 4 3 4 4 4 5 6 7 8 9
267 266 265 264 264 265 267 269 270 272 274 276 279 282 284 285 287 289 291 292 293 294 293 293 291 289 288 288 290 294 298 304 309 312 316 320 326 332 338 342 345 347 349 350 350 350 349 348 347 347 347 348 348 349 350 350 351 353 354 355 357 359 1 3 4 5 6 7 7 7 6 6 6 5 4 3 2 0 359 358 357 357 357 357 357
266 264 263 263 264 265 267 269 271 273 275 278 281 283 284 286 287 290 292 294 295 295 295 294 292 290 290 291 292 295 298 303 307 311 316 322 328 334 340 344 346 349 351 352 353 353 352 352 352 351 351 351 351 351 350 351 351 351 351 351 352 353 354 356 358 359 1 2 2 2 2 2 2 2 2 1 0 360 358 357 355 354 352 351 350
266 264 264 265 266 266 267 269 272 274 277 280 281 283 284 287 290 293 295 296 296 296 295 294 292 292 291 291 292 294 298 303 307 311 317 323 329 335 340 343 346 349 350 351 352 353 353 353 353 353 352 352 352 352 351 351 351 350 350 350 350 350 350 351 352 353 354 355 356 357 357 358 358 358 357 357 357 356 356 355 354 353 351 350 348
267 266 266 265 265 266 268 270 272 275 277 280 281 284 287 291 294 295 296 296 296 295 294 293 292 290 290 290 291 294 298 301 306 311 317 323 328 332 337 340 343 346 348 348 349 350 350 350 351 351 351 351 351 351 351 350 350 349 349 349 348 348 348 348 348 348 348 349 350 351 351 352 353 352 352 352 352 351 351 351 350 349 349 347 346
266 265 264 263 263 265 267 269 272 275 277 280 283 287 291 293 294 295 295 295 294 293 291 290 289 287 287 288 290 293 296 299 304 310 316 320 325 329 332 336 339 341 343 344 345 345 346 346 346 346 347 347 347 347 347 347 347 347 347 346 345 345 344 344 344 344 344 344 344 345 345 345 346 346 346 347 347 346 346 345 345 344 344 343 342
263 262 261 261 261 263 265 268 272 274 277 281 285 289 291 292 291 291 291 291 290 287 284 283 283 282 283 285 287 289 293 297 303 308 313 317 322 325 328 332 334 337 338 340 340 341 341 342 342 342 342 342 342 342 342 342 342 342 342 342 341 341 340 340 339 339 339 339 339 339 339 339 339 339 340 340 340 340 341 340 340 339 338 337 337
259 258 257 257 259 261 264 268 271 274 278 282 285 287 288 288 286 285 285 284 281 277 274 274 275 276 278 280 284 288 292 297 303 308 312 316 319 322 325 328 330 332 334 335 336 336 337 337 337 337 338 338 338 338 338 337 337 337 337 337 337 336 336 336 335 335 334 334 334 333 333 333 333 333 333 333 333 333 334 334 334 333 333 333 332
254 253 253 254 257 260 264 268 271 274 278 282 284 285 285 282 279 278 276 273 268 266 266 268 271 272 274 278 282 287 292 297 301 306 309 312 315 318 321 323 326 327 329 330 331 332 332 333 333 333 333 333 333 333 333 333 332 332 332 331 331 331 331 331 331 330 330 329 329 328 328 327 327 327 327 327 327 327 326 326 327 327 327 326 326
248 248 249 252 256 260 264 266 269 273 278 280 282 281 278 273 270 268 267 264 264 266 268 269 271 272 275 279 283 287 291 295 299 302 304 307 309 312 314 317 319 321 323 324 326 327 328 329 329 330 330 330 330 329 329 329 328 328 327 327 326 326 326 326 326 326 326 325 324 324 323 322 322 321 321 321 321 320 320 320 320 319 319 319 319
244 245 248 252 256 259 261 264 268 272 275 276 276 273 267 260 257 257 259 262 266 270 271 273 275 277 279 283 285 288 292 295 298 300 302 304 305 307 309 311 314 316 317 319 320 322 322 323 324 325 326 326 326 326 326 325 325 324 324 324 323 322 322 322 322 322 321 321 321 320 320 319 318 317 316 316 315 315 314 314 314 314 313 313 313
241 243 247 251 254 256 258 262 267 271 272 270 267 261 255 252 252 255 260 265 268 271 274 278 281 283 286 288 290 292 295 297 299 300 302 303 304 306 307 309 311 313 314 316 317 318 319 320 320 321 322 322 322 322 322 321 321 321 321 320 320 319 318 318 318 318 318 318 317 317 316 316 315 314 313 312 311 311 310 310 309 309 309 309 308
239 243 247 249 251 253 255 260 264 266 265 262 257 254 252 254 258 262 266 270 273 276 279 282 284 286 288 289 291 294 295 298 300 301 302 302 303 304 305 307 308 309 311 312 313 314 315 316 317 317 318 318 318 318 318 318 317 317 317 317 316 316 316 315 315 314 314 314 314 314 313 313 312 312 311 310 309 308 307 307 306 306 305 305 305
Height
5789 5790 5790 5791 5791 5791 5792 5792 5793 5793 5793 5794 5794 5794 5795 5795 5795 5794 5794 5793 5793 5792 5791 5790 5789 5789 5788 5787 5786 5785 5783 5782 5780 5779 5777 5776 5774 5773 5771 5770 5768 5767 5765 5763 5762 5760 5759 5757 5756 5754 5753 5752 5750 5749 5748 5746 5744 5744 5743 5742 5740 5738 5736 5734 5735 5738 5737 5733 5731 5731 5729 5728 5728 5726 5725 5724 5722 5721 5721 5719 5718 5717 5717 5717 5717
5787 5787 5788 5788 5789 5789 5789 5790 5790 5790 5791 5791 5791 5791 5792 5792 5792 5791 5791 5790 5790 5789 5788 5787 5787 5786 5785 5784 5783 5781 5780 5778 5777 5775 5773 5772 5770 5769 5767 5766 5764 5762 5760 5759 5757 5756 5754 5752 5751 5750 5748 5747 5745 5744 5743 5742 5740 5739 5738 5737 5735 5734 5732 5730 5728 5730 5732 5730 5727 5726 5725 5724 5724 5722 5721 5719 5718 5717 5716 5715 5713 5712 5712 5712 5712
5785 5785 5786 5786 5786 5786 5787 5787 5788 5788 5788 5789 5789 5788 5788 5789 5788 5788 5788 5787 5787 5786 5785 5784 5784 5783 5782 5780 5779 5778 5776 5775 5773 5772 5770 5768 5766 5765 5763 5761 5760 5758 5756 5754 5752 5751 5749 5748 5746 5745 5744 5742 5741 5739 5738 5736 5735 5734 5733 5731 5730 5729 5727 5726 5723 5722 5725 5726 5723 5720 5720 5719 5718 5718 5716 5714 5713 5712 5712 5711 5709 5708 5708 5707 5707
5782 5783 5783 5783 5783 5784 5784 5785 5785 5785 5786 5786 5786 5786 5785 5785 5785 5785 5785 5784 5784 5783 5782 5781 5780 5779 5778 5777 5776 5774 5773 5771 5770 5768 5766 5764 5763 5761 5759 5757 5755 5753 5752 5750 5748 5746 5744 5743 5741 5740 5739 5737 5736 5734 5732 5731 5729 5728 5727 5726 5724 5724 5722 5720 5718 5716 5717 5719 5718 5715 5714 5713 5713 5713 5711 5710 5708 5707 5707 5707 5705 5704 5704 5703 5702
5779 5779 5780 5780 5781 5781 5782 5782 5782 5783 5783 5783 5783 5783 5783 5783 5782 5782 5782 5781 5781 5780 5779 5778 5777 5776 5775 5774 5773 5771 5769 5768 5766 5764 5762 5760 5758 5756 5755 5753 5751 5749 5747 5745 5743 5741 5739 5738 5736 5735 5734 5732 5730 5729 5727 5725 5724 5722 5721 5720 5718 5717 5716 5715 5713 5711 5710 5711 5712 5710 5708 5708 5708 5707 5706 5704 5703 5702 5702 5702 5701 5700 5699 5698 5698
5775 5776 5777 5778 5778 5779 5779 5780 5780 5780 5780 5780 5780 5780 5780 5780 5779 5779 5779 5778 5778 5777 5776 5775 5774 5773 5772 5771 5769 5768 5766 5764 5762 5760 5758 5756 5754 5752 5750 5748 5746 5744 5742 5740 5738 5737 5734 5732 5731 5729 5728 5727 5725 5723 5721 5720 5718 5716 5715 5714 5712 5711 5710 5709 5707 5705 5704 5704 5705 5704 5703 5702 5702 5701 5700 5699 5697 5696 5697 5697 5696 5695 5694 5693 5693
5771 5773 5774 5775 5775 5776 5777 5777 5777 5777 5777 5777 5777 5777 5777 5776 5776 5776 5775 5775 5774 5773 5772 5772 5771 5770 5769 5767 5766 5764 5762 5760 5758 5756 5754 5752 5749 5747 5745 5743 5741 5739 5737 5735 5733 5731 5729 5727 5725 5723 5722 5721 5719 5717 5715 5714 5712 5710 5708 5707 5706 5704 5703 5702 5701 5699 5698 5698 5698 5698 5697 5697 5696 5695 5695 5693 5691 5691 5692 5691 5691 5690 5689 5689 5689
5769 5769 5770 5772 5772 5773 5773 5773 5773 5774 5774 5774 5774 5773 5773 5773 5773 5773 5772 5771 5771 5770 5769 5768 5767 5766 5765 5764 5762 5760 5758 5755 5753 5751 5749 5747 5745 5743 5741 5739 5736 5734 5732 5729 5727 5725 5723 5721 5719 5717 5715 5714 5712 5711 5709 5707 5706 5704 5702 5700 5699 5698 5697 5695 5694 5693 5692 5691 5691 5691 5691 5691 5690 5689 5689 5688 5686 5686 5686 5685 5685 5685 5684 5684 5684
5766 5767 5768 5769 5769 5770 5770 5770 5770 5770 5770 5770 5770 5770 5770 5770 5769 5769 5768 5768 5767 5766 5766 5765 5764 5763 5761 5760 5758 5756 5753 5751 5749 5747 5744 5742 5740 5738 5736 5733 5731 5729 5726 5724 5722 5719 5717 5715 5713 5711 5709 5707 5705 5703 5701 5700 5699 5697 5695 5693 5692 5690 5689 5688 5687 5686 5685 5684 5684 5684 5684 5684 5683 5682 5682 5681 5680 5680 5680 5680 5680 5679 5678 5679 5680
5764 5764 5765 5766 5766 5766 5767 5767 5767 5767 5767 5767 5767 5766 5766 5766 5766 5765 5765 5764 5764 5763 5762 5761 5760 5759 5757 5755 5753 5751 5749 5747 5745 5742 5740 5738 5736 5733 5731 5728 5726 5723 5721 5719 5716 5714 5711 5709 5707 5704 5702 5700 5697 5695 5694 5692 5690 5689 5687 5685 5684 5683 5682 5680 5679 5678 5677 5677 5677 5676 5676 5677 5677 5675 5675 5675 5674 5674 5675 5674 5674 5674 5673 5674 5675
5761 5761 5762 5763 5763 5763 5764 5764 5764 5764 5764 5764 5763 5763 5763 5762 5762 5762 5761 5761 5760 5759 5758 5757 5756 5754 5753 5751 5749 5746 5744 5742 5740 5738 5736 5733 5731 5728 5726 5723 5721 5718 5716 5713 5710 5708 5705 5703 5700 5697 5695 5692 5690 5687 5685 5683 5682 5680 5678 5677 5675 5674 5673 5672 5671 5670 5669 5669 5669 5669 5669 5670 5670 5669 5668 5668 5667 5667 5668 5669 5669 5669 5668 5669 5669
5758 5759 5759 5760 5761 5761 5761 5761 5761 5761 5760 5760 5760 5759 5759 5759 5758 5758 5757 5757 5756 5755 5754 5753 5752 5750 5748 5746 5744 5742 5740 5738 5735 5733 5731 5728 5726 5723 5721 5718 5715 5713 5710 5707 5704 5702 5699 5696 5693 5691 5688 5685 5682 5679 5677 5675 5673 5670 5669 5668 5666 5665 5664 5663 5662 5662 5661 5661 5661 5661 5661 5662 5663 5662 5661 5662 5661 5661 5662 5663 5663 5663 5663 5663 5664
5756 5757 5757 5757 5758 5757 5757 5757 5757 5757 5756 5756 5756 5756 5755 5755 5755 5754 5754 5753 5752 5751 5750 5749 5747 5746 5744 5742 5740 5737 5735 5733 5731 5729 5726 5724 5721 5718 5716 5713 5710 5707 5705 5702 5699 5696 5693 5690 5687 5684 5681 5678 5675 5672 5669 5666 5664 5661 5659 5658 5657 5655 5654 5653 5653 5652 5652 5652 5653 5653 5653 5653 5655 5655 5654 5654 5655 5655 5656 5657 5657 5657 5657 5658 5658
5753 5754 5754 5754 5754 5754 5754 5753 5753 5753 5752 5752 5752 5752 5751 5751 5751 5750 5749 5749 5748 5747 5746 5745 5743 5741 5740 5737 5735 5733 5731 5729 5727 5724 5722 5719 5716 5713 5711 5708 5705 5702 5699 5696 5693 5690 5687 5683 5680 5677 5674 5670 5667 5664 5661 5658 5655 5652 5650 5648 5647 5645 5644 5643 5643 5643 5643 5643 5644 5644 5644 5645 5647 5647 5647 5647 5648 5649 5650 5651 5651 5651 5652 5652 5653
5749 5750 5750 5750 5750 5750 5750 5749 5749 5749 5749 5748 5748 5748 5748 5747 5747 5746 5745 5745 5744 5743 5742 5740 5739 5737 5735 5733 5731 5729 5727 5725 5722 5719 5717 5714 5712 5709 5706 5703 5700 5697 5694 5691 5687 5684 5681 5677 5674 5670 5667 5663 5660 5656 5653 5649 5646 5643 5640 5638 5636 5635 5634 5633 5633 5633 5633 5634 5635 5636 5636 5637 5639 5640 5640 5640 5641 5642 5643 5645 5645 5645 5646 5647 5648
5745 5745 5746 5746 5746 5746 5746 5745 5745 5745 5745 5745 5744 5744 5743 5743 5742 5742 5741 5740 5740 5739 5737 5736 5734 5733 5731 5729 5727 5725 5723 5720 5718 5715 5712 5710 5707 5704 5701 5698 5695 5692 5689 5686 5682 5679 5675 5672 5668 5664 5660 5656 5652 5648 5644 5641 5637 5634 5630 5628 5625 5624 5623 5623 5622 5623 5624 5625 5626 5627 5628 5629 5630 5632 5633 5634 5634 5635 5636 5638 5639 5639 5639 5641 5643
5742 5742 5742 5742 5742 5742 5742 5741 5741 5741 5740 5740 5739 5739 5739 5739 5738 5737 5737 5736 5736 5735 5733 5732 5730 5729 5727 5725 5723 5721 5718 5716 5713 5711 5708 5705 5703 5700 5697 5694 5691 5688 5684 5681 5678 5674 5671 5667 5663 5659 5654 5650 5645 5641 5636 5632 5628 5624 5621 5618 5615 5614 5613 5613 5612 5613 5614 5616 5617 5618 5620 5621 5622 5624 5626 5627 5628 5629 5630 5631 5632 5633 5633 5635 5637
5738 5738 5739 5738 5738 5738 5737 5737 5737 5736 5735 5735 5734 5734 5734 5734 5734 5733 5733 5732 5732 5730 5729 5728 5726 5725 5723 5721 5719 5717 5714 5712 5709 5707 5704 5701 5699 5696 5693 5690 5686 5683 5680 5676 5673 5669 5666 5662 5658 5653 5649 5644 5639 5634 5629 5624 5619 5615 5612 5609 5607 5605 5605 5604 5604 5604 5605 5607 5608 5610 5612 5614 5615 5617 5619 5620 5621 5623 5624 5625 5626 5627 5627 5629 5631
5735 5735 5735 5735 5734 5734 5733 5732 5732 5731 5731 5730 5730 5730 5730 5730 5730 5730 5729 5729 5728 5726 5725 5724 5723 5721 5719 5717 5715 5713 5710 5708 5706 5703 5700 5698 5695 5692 5688 5685 5682 5678 5675 5671 5668 5664 5661 5657 5653 5648 5643 5638 5633 5628 5623 5618 5613 5609 5606 5603 5601 5599 5599 5598 5597 5597 5598 5599 5601 5603 5605 5607 5609 5610 5612 5614 5615 5616 5618 5619 5620 5621 5621 5623 5624
5732 5732 5731 5731 5730 5730 5729 5728 5728 5727 5727 5727 5727 5727 5727 5727 5727 5727 5726 5725 5724 5723 5722 5721 5719 5717 5715 5714 5711 5709 5707 5705 5702 5699 5697 5694 5691 5688 5685 5682 5678 5675 5671 5668 5664 5660 5657 5653 5648 5644 5639 5634 5629 5623 5618 5613 5609 5605 5602 5600 5598 5597 5596 5595 5594 5593 5594 5595 5595 5596 5598 5601 5603 5605 5606 5608 5609 5610 5612 5613 5614 5615 5616 5617 5618
5728 5728 5727 5727 5726 5726 5725 5725 5725 5724 5724 5724 5725 5725 5725 5724 5724 5723 5722 5722 5721 5720 5719 5717 5716 5714 5712 5710 5708 5706 5704 5701 5699 5696 5693 5690 5688 5684 5681 5678 5675 5671 5668 5664 5660 5656 5652 5648 5644 5640 5635 5630 5625 5619 5614 5610 5606 5603 5601 5598 5596 5595 5594 5592 5591 5591 5591 5591 5592 5592 5593 5595 5597 5599 5601 5603 5604 5605 5606 5607 5609 5610 5611 5611 5613
5724 5723 5723 5722 5722 5722 5722 5722 5722 5722 5722 5722 5722 5722 5721 5721 5720 5720 5719 5719 5718 5716 5715 5714 5712 5711 5709 5707 5705 5703 5700 5698 5695 5692 5690 5687 5684 5681 5678 5675 5672 5668 5665 5661 5657 5653 5649 5645 5641 5636 5632 5627 5622 5617 5612 5608 5605 5602 5600 5598 5595 5594 5592 5590 5590 5589 5588 5588 5589 5589 5590 5591 5592 5594 5596 5598 5599 5601 5602 5603 5604 5605 5606 5606 5607
5720 5720 5719 5719 5719 5719 5719 5720 5720 5720 5720 5719 5719 5719 5718 5718 5718 5717 5716 5716 5715 5713 5712 5710 5709 5708 5706 5704 5702 5699 5697 5694 5691 5689 5686 5683 5681 5678 5675 5672 5669 5665 5662 5658 5654 5651 5647 5643 5639 5635 5630 5626 5621 5615 5610 5606 5603 5601 5599 5597 5595 5593 5591 5589 5588 5587 5586 5585 5586 5586 5587 5588 5589 5590 5592 5593 5595 5596 5597 5598 5599 5600 5601 5602 5603
5717 5717 5717 5717 5717 5717 5717 5718 5718 5717 5717 5717 5716 5716 5716 5715 5715 5715 5714 5713 5711 5710 5709 5707 5706 5705 5703 5700 5698 5696 5693 5691 5688 5686 5683 5681 5678 5675 5672 5669 5666 5663 5660 5656 5652 5649 5645 5641 5637 5633 5629 5625 5620 5615 5610 5606 5602 5600 5598 5596 5594 5592 5590 5589 5587 5585 5584 5583 5583 5584 5584 5585 5586 5587 5588 5589 5590 5592 5593 5594 5595 5596 5596 5597 5597
5715 5714 5714 5715 5715 5715 5715 5715 5715 5715 5714 5714 5714 5714 5713 5713 5712 5712 5711 5710 5708 5707 5706 5705 5703 5701 5699 5697 5695 5692 5690 5688 5686 5683 5681 5678 5675 5672 5669 5666 5664 5661 5657 5654 5650 5647 5644 5640 5636 5632 5628 5624 5620 5615 5610 5606 5602 5599 5597 5595 5593 5591 5590 5588 5586 5585 5583 5582 5582 5582 5582 5583 5584 5584 5585 5585 5586 5587 5589 5589 5590 5591 5592 5592 5593
5712 5712 5713 5713 5713 5713 5713 5713 5713 5712 5712 5712 5711 5711 5711 5710 5709 5709 5708 5706 5705 5704 5703 5702 5700 5698 5696 5694 5691 5689 5687 5685 5683 5681 5678 5676 5673 5670 5667 5664 5661 5658 5655 5652 5649 5646 5642 5639 5635 5631 5627 5623 5619 5615 5611 5607 5603 5599 5596 5594 5592 5590 5589 5587 5586 5584 5583 5582 5581 5580 5580 5580 5581 5582 5582 5582 5583 5584 5585 5586 5586 5587 5587 5588 5589
5711 5711 5711 5711 5711 5711 5711 5711 5710 5710 5709 5709 5709 5708 5708 5707 5706 5706 5705 5703 5702 5701 5700 5699 5697 5695 5693 5691 5689 5687 5685 5683 5681 5679 5676 5674 5671 5668 5665 5662 5659 5656 5653 5650 5647 5644 5641 5638 5634 5631 5627 5623 5619 5615 5612 5608 5604 5600 5597 5594 5592 5590 5588 5586 5585 5583 5582 5581 5580 5580 5579 5579 5579 5579 5579 5579 5580 5581 5582 5582 5583 5583 5584 5584 5585
5709 5709 5709 5709 5709 5709 5709 5708 5708 5707 5707 5707 5706 5706 5705 5704 5704 5703 5702 5701 5700 5698 5697 5695 5693 5691 5690 5688 5686 5684 5682 5680 5678 5676 5673 5671 5668 5666 5663 5660 5657 5654 5651 5649 5646 5643 5640 5637 5633 5630 5626 5623 5619 5616 5613 5610 5606 5602 5599 5595 5592 5590 5588 5586 5584 5583 5582 5580 5580 5579 5579 5578 5578 5578 5577 5577 5577 5578 5578 5579 5579 5580 5580 5581 5581
5706 5707 5707 5707 5707 5706 5706 5706 5705 5705 5704 5704 5703 5703 5702 5702 5701 5700 5699 5698 5697 5695 5694 5692 5690 5689 5687 5685 5683 5682 5680 5678 5676 5673 5671 5669 5666 5664 5661 5658 5656 5653 5650 5647 5645 5642 5639 5635 5632 5629 5626 5623 5620 5617 5614 5611 5607 5604 5601 5597 5593 5590 5588 5586 5584 5583 5581 5580 5579 5579 5578 5578 5577 5577 5576 5576 5576 5576 5576 5576 5577 5577 5577 5578 5578
5704 5704 5704 5704 5704 5704 5704 5703 5703 5702 5702 5701 5701 5700 5700 5699 5698 5697 5696 5695 5693 5692 5690 5689 5688 5686 5684 5683 5681 5679 5677 5675 5673 5671 5669 5667 5664 5662 5660 5657 5654 5652 5649 5646 5644 5641 5638 5635 5632 5629 5626 5623 5620 5618 5615 5612 5609 5606 5602 5599 5596 5593 5590 5587 5585 5583 5582 5580 5579 5578 5578 5577 5576 5576 5575 5575 5575 5575 5575 5575 5575 5575 5575 5575 5575
5701 5702 5702 5702 5701 5701 5701 5700 5700 5699 5699 5698 5698 5697 5697 5696 5695 5694 5693 5691 5690 5689 5688 5686 5685 5684 5682 5680 5678 5677 5675 5673 5671 5670 5668 5665 5663 5661 5658 5656 5653 5651 5648 5646 5643 5640 5637 5634 5632 5629 5626 5623 5621 5618 5615 5612 5610 5607 5604 5601 5598 5595 5593 5590 5587 5585 5583 5581 5579 5578 5577 5576 5575 5575 5574 5574 5573 5573 5573 5573 5573 5573 5573 5573 5573
5699 5699 5699 5699 5698 5698 5698 5697 5697 5696 5696 5695 5695 5694 5694 5693 5692 5691 5690 5689 5688 5686 5685 5684 5682 5681 5679 5678 5676 5674 5673 5671 5670 5668 5666 5664 5662 5659 5657 5655 5652 5650 5647 5645 5642 5640 5637 5634 5632 5629 5626 5624 5621 5619 5616 5613 5611 5608 5605 5603 5600 5598 5595 5592 5589 5587 5585 5583 5581 5579 5577 5576 5575 5574 5574 5573 5572 5572 5571 5571 5571 5571 5571 5571 5572
5696 5696 5696 5696 5695 5695 5695 5694 5694 5693 5693 5693 5692 5692 5691 5690 5689 5688 5687 5686 5685 5684 5682 5681 5680 5678 5677 5675 5674 5672 5671 5670 5668 5666 5664 5662 5660 5658 5656 5654 5651 5649 5646 5644 5642 5639 5637 5634 5632 5629 5627 5624 5622 5619 5616 5614 5612 5609 5606 5604 5602 5599 5597 5594 5591 5589 5587 5585 5583 5580 5579 5577 5575 5574 5573 5573 5572 5571 5571 5570 5570 5570 5570 5570 5570
5693 5693 5693 5693 5692 5692 5692 5691 5691 5691 5690 5690 5689 5689 5688 5687 5686 5685 5684 5683 5682 5681 5680 5678 5677 5676 5674 5673 5672 5670 5669 5668 5666 5664 5662 5661 5658 5656 5654 5652 5650 5648 5645 5643 5641 5638 5636 5634 5632 5629 5627 5624 5622 5619 5617 5615 5612 5610 5607 5605 5602 5600 5598 5596 5593 5591 5589 5587 5584 5582 5581 5579 5577 5576 5575 5573 5572 5571 5570 5570 5569 5569 5569 5568 5568
5690 5690 5690 5690 5689 5689 5689 5689 5688 5688 5688 5687 5687 5686 5685 5684 5684 5683 5682 5681 5679 5678 5677 5676 5675 5673 5672 5671 5669 5668 5667 5666 5664 5663 5661 5659 5657 5655 5653 5651 5649 5646 5644 5642 5640 5637 5635 5633 5631 5629 5627 5625 5622 5620 5618 5615 5613 5610 5608 5606 5603 5601 5599 5597 5595 5593 5591 5589 5587 5585 5583 5581 5579 5578 5576 5575 5574 5572 5571 5570 5570 5569 5568 5568 5568
5687 5687 5687 5687 5686 5686 5686 5686 5686 5685 5685 5684 5684 5683 5682 5682 5681 5680 5679 5678 5677 5676 5674 5673 5672 5671 5670 5668 5667 5666 5665 5664 5662 5661 5659 5657 5655 5654 5652 5650 5647 5645 5643 5641 5639 5637 5635 5633 5631 5629 5627 5625 5623 5621 5618 5616 5614 5611 5609 5607 5604 5602 5600 5598 5596 5594 5592 5590 5588 5586 5584 5583 5581 5580 5578 5577 5575 5574 5573 5572 5571 5570 5569 5568 5568
5684 5684 5684 5684 5684 5684 5683 5683 5683 5682 5682 5681 5681 5680 5680 5679 5678 5677 5676 5675 5674 5673 5672 5671 5669 5668 5667 5666 5665 5664 5663 5662 5661 5659 5658 5656 5654 5652 5650 5648 5646 5644 5642 5640 5638 5636 5635 5633 5631 5629 5627 5625 5623 5621 5619 5616 5614 5612 5610 5608 5605 5603 5601 5599 5597 5595 5593 5591 5589 5588 5586 5584 5583 5581 5580 5578 5577 5576 5575 5573 5572 5571 5570 5569 5568
5681 5681 5681 5681 5681 5681 5680 5680 5680 5680 5679 5679 5678 5678 5677 5676 5676 5675 5674 5673 5672 5671 5669 5668 5667 5666 5665 5664 5663 5662 5661 5660 5659 5657 5656 5654 5653 5651 5649 5647 5645 5643 5641 5639 5637 5636 5634 5633 5631 5629 5627 5625 5623 5621 5619 5617 5615 5613 5611 5609 5606 5604 5602 5600 5598 5596 5594 5592 5590 5589 5587 5586 5584 5582 5581 5580 5578 5577 5576 5575 5573 5572 5571 5570 5569
5678 5678 5678 5678 5678 5678 5678 5677 5677 5677 5676 5676 5676 5675 5674 5674 5673 5672 5671 5670 5669 5668 5667 5666 5665 5664 5663 5662 5661 5660 5659 5658 5657 5656 5654 5653 5652 5650 5648 5646 5644 5642 5641 5639 5637 5635 5634 5632 5631 5629 5627 5625 5623 5621 5619 5617 5615 5613 5611 5609 5607 5605 5603 5601 5599 5597 5595 5593 5591 5590 5588 5586 5585 5583 5582 5581 5579 5578 5577 5576 5575 5573 5572 5571 5570
5675 5675 5675 5675 5675 5675 5675 5674 5674 5674 5674 5673 5673 5672 5671 5671 5670 5669 5668 5668 5667 5666 5665 5663 5662 5662 5661 5660 5659 5658 5658 5657 5656 5654 5653 5652 5650 5649 5647 5645 5643 5642 5640 5638 5637 5635 5633 5632 5630 5628 5627 5625 5623 5621 5619 5617 5615 5613 5611 5609 5607 5605 5603 5601 5599 5597 5596 5594 5592 5590 5589 5587 5586 5584 5583 5581 5580 5579 5577 5576 5575 5574 5573 5572 5571
5672 5672 5672 5672 5672 5672 5672 5672 5671 5671 5671 5670 5670 5669 5669 5668 5667 5666 5666 5665 5664 5663 5662 5661 5660 5659 5658 5658 5657 5657 5656 5655 5654 5653 5652 5650 5649 5647 5646 5644 5643 5641 5639 5638 5636 5635 5633 5631 5630 5628 5626 5624 5622 5621 5619 5617 5615 5613 5611 5609 5607 5605 5603 5601 5600 5598 5596 5594 5592 5591 5589 5588 5586 5584 5583 5581 5580 5579 5578 5576 5575 5574 5573 5572 5571
5669 5669 5669 5669 5669 5669 5669 5669 5669 5668 5668 5668 5667 5667 5666 5665 5665 5664 5663 5662 5661 5660 5659 5658 5658 5657 5656 5656 5655 5655 5654 5653 5653 5652 5650 5649 5648 5646 5645 5643 5642 5640 5639 5637 5635 5634 5632 5631 5629 5627 5626 5624 5622 5620 5618 5616 5614 5613 5611 5609 5607 5605 5603 5601 5600 5598 5596 5594 5593 5591 5589 5588 5586 5585 5583 5582 5580 5579 5578 5576 5575 5574 5573 5572 5571
5665 5665 5665 5666 5666 5666 5666 5666 5666 5666 5665 5665 5664 5664 5663 5662 5662 5661 5660 5659 5658 5657 5657 5656 5656 5655 5655 5654 5654 5653 5653 5652 5651 5650 5649 5648 5647 5645 5644 5642 5641 5639 5638 5636 5634 5633 5631 5630 5628 5626 5625 5623 5621 5619 5618 5616 5614 5612 5610 5608 5606 5605 5603 5601 5599 5597 5596 5594 5592 5591 5589 5587 5586 5584 5583 5581 5580 5579 5577 5576 5575 5573 5572 5571 5570
5662 5662 5662 5663 5663 5663 5663 5664 5663 5663 5663 5662 5662 5661 5660 5660 5659 5658 5657 5657 5656 5655 5655 5654 5654 5653 5653 5653 5652 5652 5651 5650 5649 5649 5648 5646 5645 5644 5643 5641 5640 5638 5637 5635 5633 5632 5630 5628 5627 5625 5623 5622 5620 5618 5616 5615 5613 5611 5609 5607 5606 5604 5602 5600 5599 5597 5595 5593 5592 5590 5589 5587 5585 5584 5582 5581 5579 5578 5577 5575 5574 5573 5571 5570 5569
5659 5659 5660 5660 5660 5661 5661 5661 5661 5661 5660 5660 5659 5659 5658 5657 5657 5656 5655 5655 5654 5654 5653 5653 5652 5652 5652 5651 5651 5650 5650 5649 5648 5647 5646 5645 5644 5642 5641 5640 5638 5637 5635 5634 5632 5631 5629 5627 5626 5624 5622 5620 5618 5617 5615 5613 5611 5610 5608 5606 5604 5603 5601 5599 5598 5596 5594 5592 5591 5589 5588 5586 5584 5583 5581 5580 5578 5577 5575 5574 5573 5571 5570 5569 5568
5656 5657 5657 5658 5658 5658 5658 5658 5658 5658 5658 5657 5657 5656 5656 5655 5655 5654 5653 5653 5653 5652 5652 5651 5651 5651 5650 5650 5649 5649 5648 5647 5646 5645 5644 5643 5642 5641 5639 5638 5636 5635 5634 5632 5630 5629 5627 5626 5624 5622 5620 5619 5617 5615 5613 5612 5610 5608 5606 5605 5603 5601 5599 5598 5596 5594 5593 5591 5589 5588 5586 5585 5583 5582 5580 5579 5577 5576 5574 5573 5571 5570 5569 5567 5566
5653 5654 5655 5655 5656 5656 5656 5656 5656 5656 5655 5655 5655 5654 5654 5653 5653 5652 5652 5651 5651 5651 5651 5650 5650 5649 5649 5648 5648 5647 5647 5646 5645 5644 5643 5641 5640 5639 5637 5636 5635 5633 5632 5630 5628 5627 5625 5624 5622 5620 5618 5617 5615 5613 5612 5610 5608 5606 5604 5603 5601 5599 5598 5596 5594 5592 5591 5589 5588 5586 5584 5583 5581 5580 5578 5577 5575 5574 5572 5571 5570 5568 5567 5565 5564
5651 5651 5652 5653 5653 5653 5654 5654 5653 5653 5653 5653 5653 5652 5652 5651 5651 5651 5650 5650 5650 5649 5649 5649 5648 5648 5647 5647 5646 5646 5645 5644 5643 5642 5641 5640 5639 5637 5636 5634 5633 5631 5629 5628 5626 5625 5623 5621 5620 5618 5616 5614 5613 5611 5609 5607 5606 5604 5603 5601 5599 5597 5595 5594 5592 5590 5588 5587 5585 5584 5582 5581 5579 5578 5576 5575 5573 5572 5570 5569 5568 5566 5565 5563 5562
5648 5649 5650 5651 5651 5651 5651 5651 5651 5651 5651 5651 5651 5650 5650 5650 5649 5649 5649 5649 5648 5648 5648 5647 5647 5646 5646 5645 5644 5644 5643 5642 5641 5640 5639 5637 5636 5635 5633 5632 5630 5629 5627 5625 5624 5622 5621 5619 5617 5616 5614 5612 5610 5608 5607 5605 5603 5601 5600 5598 5597 5595 5593 5591 5589 5587 5586 5584 5582 5581 5579 5578 5576 5575 5573 5572 5570 5569 5568 5566 5565 5563 5562 5561 5559
5646 5647 5648 5648 5649 5649 5649 5649 5649 5649 5649 5649 5649 5648 5648 5648 5648 5647 5647 5647 5647 5646 5646 5645 5645 5644 5644 5643 5642 5641 5641 5640 5638 5637 5636 5635 5633 5632 5630 5629 5627 5626 5624 5622 5621 5619 5617 5616 5614 5613 5611 5609 5607 5606 5604 5602 5600 5598 5596 5595 5593 5592 5590 5588 5586 5584 5583 5581 5579 5578 5576 5574 5573 5571 5570 5569 5567 5566 5564 5563 5561 5560 5559 5557 5556
5644 5645 5645 5646 5646 5647 5647 5647 5647 5647 5647 5647 5647 5646 5646 5646 5646 5646 5645 5645 5645 5644 5644 5643 5643 5642 5641 5640 5640 5639 5638 5637 5635 5634 5633 5631 5630 5628 5627 5625 5624 5622 5621 5619 5617 5616 5614 5612 5611 5609 5608 5606 5604 5602 5601 5599 5597 5595 5593 5591 5589 5588 5586 5584 5583 5581 5579 5577 5576 5574 5572 5571 5569 5567 5566 5564 5563 5562 5560 5559 5557 5556 5555 5553 5552